Tracking 25949 objects as of 8-Aug-2022
HD Live streaming from Space Station
objects crossing your sky now

COSMOS 2292

Track COSMOS 2292 now!
10-day predictions
COSMOS 2292 is classified as:


NORAD ID: 23278
Int'l Code: 1994-061A
Perigee: 401.0 km
Apogee: 1,696.6 km
Inclination: 83.0 °
Period: 106.0 minutes
Semi major axis: 7419 km
RCS: 2.958 m2 (large)
Launch date: September 27, 1994
Source: Commonwealth of Independent States (former USSR) (CIS)
Launch site: PLESETSK MISSILE AND SPACE COMPLEX (PKMTR)
aabbcc
Your satellite tracking list
Your tracking list is empty




NASA's NSSDC Master Catalog

Two Line Element Set (TLE):
1 23278U 94061A   22220.53005745  .00001645  00000-0  13868-3 0  9994
2 23278  82.9744 227.9246 0873075 113.4952 256.0365 13.58370452365880
Source of the keplerian elements: AFSPC